Weather in Golubinskaya

Russia / Volgograd Oblast     48°50′51″N   43°33′25″E
temp.,
°C
wind,
m/s
gust,
m/s
humid.,
%
clouds,
%
prec.,
mm/h
press.,
hPa
HPBL,
m
31 july, sat
sat3100:00+25w115012 0.0 100912
03:00+23s12526 0.0 100911
06:00+24sw234214 0.0 100982
09:00+32sw45225 0.0 1009889
12:00+34ssw44198 0.0 10093078
15:00+35sw44185 0.0 10093180
18:00+34sw43192 0.0 10092291
21:00+28s22265 0.0 101011
1 august, sun
sun100:00+25nnw22310 0.0 101111
03:00+24ene11380 0.0 101111
06:00+24e22320 0.0 101255
09:00+32se23170 0.0 1012731
12:00+35ese12130 0.0 10113338
15:00+37ssw12121 0.0 10103884
18:00+36ssw22130 0.0 10103157
21:00+29sse12201 0.0 101111
2 august, mon
mon200:00+27e22262 0.0 101111
03:00+26e11267 0.0 101114
06:00+26ne11280 0.0 101223
09:00+34ese34239 0.1 1012816
12:00+38sse551511 0.1 10103820
15:00+39s65132 0.1 10094036
18:00+37s66140 0.0 10092976
21:00+30sse34205 0.0 100940
3 august, tue
tue300:00+28s112450 0.0 100912
03:00+26s222540 0.0 100915
06:00+27s23294 0.0 101049
09:00+35s46175 0.0 1009912
12:00+38s66134 0.0 10083235
15:00+38sw67180 0.0 10073162
18:00+37ssw661825 0.0 10061349
21:00+30nnw7123994 0.0 1008486
4 august, wed
wed400:00+25nne2358100 0.1 1009104
03:00+22nnw2574100 0.6 1010186
06:00+22ne127795 1.3 1012172
09:00+26nne4457100 1.3 1013711
12:00+30nnw43413 0.0 10121326
15:00+32nnw3432100 0.0 10122922
18:00+26n475191 1.8 1013343
21:00+25nw2252100 1.9 101329